Tracking 20376 objects as of 22-Feb-2020
HD Live streaming from Space Station
objects crossing your sky now
Track the group of recently launched Starlink satellites

STARLINK-1169

Track STARLINK-1169 now!
10-day predictions
STARLINK-1169 is classified as:


NORAD ID: 45061
Int'l Code: 2020-006T
Perigee: 419.9 km
Apogee: 422.2 km
Inclination: 53.0 °
Period: 92.8 minutes
Semi major axis: 6792 km
RCS: Unknown
Launch date: January 29, 2020
Source: United States (US)
Launch site: AIR FORCE EASTERN TEST RANGE (AFETR)
aabbcc
Your satellite tracking list
Your tracking list is empty




NASA's NSSDC Master Catalog

Two Line Element Set (TLE):
1 45061U 20006T   20052.91667824 +.00856405 +00000-0 +13418-1 0  9992
2 45061 052.9978 120.9204 0001713 056.1139 163.9507 15.50962533004018
Source of the keplerian elements: AFSPC